Weather History for Homer, AK

Change the Weather History Date:

Monday, April 28, 2014

  Actual Average Record
Temperature  
Mean Temperature 45 °F -  
Max Temperature 54 °F 46 °F 63 °F (2005)
Min Temperature 37 °F 31 °F -3 °F (1971)
Degree Days  
Heating Degree Days 20    
Moisture  
Dew Point 36 °F    
Average Humidity 71    
Maximum Humidity 87    
Minimum Humidity 48    
Precipitation  
Precipitation 0.00 in - - ()
Sea Level Pressure  
Sea Level Pressure 29.78 in    
Wind  
Wind Speed 5 mph (WSW)    
Max Wind Speed 13 mph    
Max Gust Speed -    
Visibility 10 miles    
Events      
Averages and records for this station are not official NWS values.
T = Trace of Precipitation, MM = Missing Value Source: NWS Daily Summary

Daily Weather History Graph

Daily Weather History Graph

Search for Another Location

Airport:

Trip Planner

Search our weather history database for the weather conditions in past years. The results will help you decide how hot, cold, wet, or windy it might be!

Date:

Astronomy

Apr. 28, 2014 Rise Set
Actual Time 6:13 AM AKDT 9:55 PM AKDT
Civil Twilight 5:22 AM AKDT 10:46 PM AKDT
Nautical Twilight 4:07 AM AKDT 12:03 AM AKDT
Astronomical Twilight 2:35 AM AKDT 1:30 AM AKDT
Moon 6:12 AM AKDT (4/28) 9:38 PM AKDT (4/28)
Length of Visible Light 17h 24m
Length of Day
15h 42m
Waning Crescent, 0% of the Moon is Illuminated
Apr 28
Waning Crescent
Apr 28
New
May 6
First Quarter
May 14
Full
May 21
Last Quarter

Hourly Weather History & Observations

Time (AKDT) Temp. Windchill Dew Point Humidity Pressure Visibility Wind Dir Wind Speed Gust Speed Precip Events Conditions
12:53 AM 43.0 °F 38.8 °F 37.0 °F 80% 29.56 in 10.0 mi SW 6.9 mph - N/A   Overcast
1:45 AM 42.8 °F 38.6 °F 37.4 °F 81% 29.57 in 10.0 mi SW 6.9 mph - N/A   Partly Cloudy
1:53 AM 42.1 °F 39.2 °F 37.0 °F 82% 29.57 in 10.0 mi SW 4.6 mph - N/A   Partly Cloudy
2:40 AM 42.8 °F - 37.4 °F 81% 29.58 in 10.0 mi Calm Calm - N/A   Mostly Cloudy
2:51 AM 41.0 °F - 35.6 °F 81% 29.59 in 10.0 mi Calm Calm - N/A   Mostly Cloudy
2:53 AM 41.0 °F - 36.0 °F 82% 29.59 in 10.0 mi Calm Calm - N/A   Mostly Cloudy
3:42 AM 39.2 °F - 35.6 °F 87% 29.60 in 10.0 mi Calm Calm - N/A   Mostly Cloudy
3:53 AM 41.0 °F - 36.0 °F 82% 29.60 in 10.0 mi Calm Calm - N/A   Mostly Cloudy
4:53 AM 37.0 °F 33.3 °F 32.0 °F 82% 29.62 in 10.0 mi NE 4.6 mph - N/A   Overcast
5:21 AM 41.0 °F 38.0 °F 35.6 °F 81% 29.63 in 10.0 mi NE 4.6 mph - N/A   Overcast
5:48 AM 41.0 °F 39.0 °F 35.6 °F 81% 29.63 in 10.0 mi North 3.5 mph - N/A   Mostly Cloudy
6:53 AM 39.9 °F 35.1 °F 35.1 °F 83% 29.68 in 10.0 mi ENE 6.9 mph - N/A   Mostly Cloudy
7:53 AM 43.0 °F 39.5 °F 37.0 °F 80% 29.71 in 10.0 mi NE 5.8 mph - N/A   Mostly Cloudy
8:53 AM 46.0 °F - 35.1 °F 66% 29.74 in 10.0 mi Calm Calm - N/A   Clear
9:53 AM 48.0 °F - 34.0 °F 58% 29.77 in 10.0 mi ESE 5.8 mph - N/A   Mostly Cloudy
10:53 AM 48.0 °F - 36.0 °F 63% 29.80 in 10.0 mi SSE 3.5 mph - N/A   Mostly Cloudy
11:53 AM 48.0 °F - 35.1 °F 61% 29.83 in 10.0 mi SSW 5.8 mph - N/A   Mostly Cloudy
12:53 PM 50.0 °F - 33.1 °F 52% 29.86 in 10.0 mi SW 8.1 mph - N/A   Mostly Cloudy
1:53 PM 50.0 °F - 37.0 °F 61% 29.87 in 10.0 mi WSW 10.4 mph - N/A   Clear
2:53 PM 51.1 °F - 36.0 °F 56% 29.89 in 10.0 mi WSW 9.2 mph - N/A   Overcast
3:53 PM 53.1 °F - 34.0 °F 48% 29.91 in 10.0 mi North 5.8 mph - N/A   Overcast
4:53 PM 50.0 °F - 36.0 °F 59% 29.93 in 10.0 mi WSW 9.2 mph - N/A   Scattered Clouds
5:53 PM 48.9 °F - 37.0 °F 64% 29.94 in 10.0 mi WSW 8.1 mph - N/A   Scattered Clouds
6:53 PM 52.0 °F - 34.0 °F 50% 29.96 in 10.0 mi Variable 3.5 mph - N/A   Partly Cloudy
7:53 PM 46.9 °F - 37.0 °F 68% 29.98 in 10.0 mi West 8.1 mph - N/A   Clear
8:53 PM 45.0 °F 38.9 °F 36.0 °F 71% 30.00 in 10.0 mi West 12.7 mph - N/A   Clear
9:53 PM 44.1 °F 39.0 °F 35.1 °F 71% 30.02 in 10.0 mi West 9.2 mph - N/A   Clear
10:53 PM 43.0 °F 41.3 °F 34.0 °F 71% 30.03 in 10.0 mi West 3.5 mph - N/A   Clear
11:53 PM 42.1 °F - 33.1 °F 70% 30.04 in 10.0 mi Calm Calm - N/A   Clear